Location: Bonny Doon Airfield
(37.0704°N, 122.1252°W)
Time: 12:17:14
(UTC-08:00)

Vanguard 1 Rocket - Pass Details

Date: 29 October 2017
Orbit: 655 x 4222 km, 34.3° (Epoch: 22 November)

Event Time Altitude Azimuth Distance (km) Brightness Sun altitude
Rises 02:26:20 0° 208° (SSW) 8,286 - -58.5°
Reaches altitude 10° 02:33:54 10° 198° (SSW) 6,910 - -57.4°
Maximum altitude 02:49:54 28° 150° (SSE) 4,304 - -54.8°
Exits shadow 02:52:02 27° 138° (SE) 4,139 10.6 -54.4°
Drops below altitude 10° 03:00:11 10° 98° (E) 4,426 11.2 -53.1°
Sets 03:03:37 0° 86° (E) 4,982 11.7 -52.5°
